Find Starlink 4490

NORAD ID: 53409 Int'l Des: 2022-097 Owner: SPXS Country: US Constellation: starlink operational
LEOCIRCULAR

当前视图

正在加载3D地球...

About Starlink 4490

Starlink 4490 (NORAD 53409) is a starlink constellation satellite (v1.5) launched Aug 10, 2022 by SPXS of US. It operates in LEO, CIRCULAR orbit with a mass of 297.00 kg.

关于 Starlink 4490

正在加载描述...

即将过境

Passes for default location (London). Set your location on the main map for personalized predictions.

高度历史

Loading altitude history...

两行轨道根数

1 53409U 22097X 26166.34472749 .00003452 00000-0 23473-3 0 9998
2 53409 53.1603 25.8381 0001183 92.6820 267.4307 15.08858488213536
Epoch: Jun 15, 2026 • Age: 12 hours

当前状态

高度 544.8 km
速度 7.60 km/s
星下点 50.54°N, 63.3°W
发射日期 Aug 10, 2022
运行时间 3.8 years
类型 internet

技术详情

分类 Payload
质量 297.00 kg
干质量 275.00 kg
总质量 297.00 kg
长度 0.20 m
直径 2.80 m
跨度 9.00 m
形状 Box + pan
制造商 SPXS
平台类型 Starlink
阶段状态 In Orbit
所有者/国家 SPXS/US

Most Searched